Location: Invercargill
(46.4000°S, 168.3500°E)
Time: 04:15:01
(UTC+12:00)

S-56A Canister/Altair - All Passes

Search period start: 23 August 2019 00:00
Search period end: 02 September 2019 00:00
Orbit: 633 x 2499 km, 38.9° (Epoch: 21 August)

Date Brightness Start Highest point End Pass type
(mag) Time Alt. Az. Time Alt. Az. Time Alt. Az.
23 Aug - 06:55:46 10° N 07:04:20 21° NE 07:13:58 10° E visible
23 Aug - 08:55:37 10° NW 09:08:17 47° NNE 09:22:11 10° E daylight
23 Aug - 10:59:33 10° WNW 11:14:02 64° N 11:28:01 10° E daylight
23 Aug - 13:05:24 10° W 13:20:07 58° NNW 13:32:28 10° ENE daylight
23 Aug - 15:12:35 10° W 15:24:44 34° NW 15:34:26 10° NNE daylight
24 Aug - 06:24:04 10° NNE 06:31:22 18° NE 06:39:33 10° E visible
24 Aug - 08:22:54 10° NW 08:34:55 43° NNE 08:48:37 10° E daylight
24 Aug - 10:26:21 10° WNW 10:40:28 63° N 10:54:47 10° E daylight
24 Aug - 12:31:53 10° W 12:46:38 60° NNW 12:59:35 10° ENE daylight
24 Aug - 14:38:43 10° W 14:51:37 37° NW 15:02:06 10° NNE daylight
24 Aug - 16:50:11 10° WNW 16:54:24 12° WNW 16:58:17 10° NW daylight
25 Aug - 05:52:49 10° NNE 05:58:28 14° NE 06:04:43 10° E visible
25 Aug - 07:50:18 10° NNW 08:01:38 40° NE 08:14:58 10° E daylight
25 Aug - 09:53:15 10° WNW 10:06:54 61° NNE 10:21:28 10° E daylight
25 Aug - 11:58:26 10° W 12:13:07 62° N 12:26:37 10° ENE daylight
25 Aug - 14:04:57 10° W 14:18:25 41° NNW 14:29:38 10° NNE daylight
25 Aug - 16:14:47 10° W 16:21:36 15° NW 16:27:39 10° NNW daylight
26 Aug - 05:22:41 10° NE 05:25:39 11° ENE 05:28:48 10° ENE visible
26 Aug - 07:17:50 10° NNW 07:28:25 36° NE 07:41:12 10° E daylight
26 Aug - 09:20:14 10° WNW 09:33:22 59° NNE 09:48:02 10° E daylight
26 Aug - 11:25:05 10° W 11:39:33 63° N 11:53:32 10° ENE daylight
26 Aug - 13:31:17 10° W 13:45:08 45° NNW 13:57:02 10° NE daylight
26 Aug - 15:40:06 10° W 15:48:43 19° NW 15:56:16 10° NNW daylight
27 Aug - 06:45:30 10° NNW 06:55:17 32° NE 07:07:21 10° E visible
27 Aug - 08:47:21 10° NW 08:59:53 57° NNE 09:14:33 10° E daylight
27 Aug - 10:51:49 10° W 11:05:58 64° N 11:20:21 10° ENE daylight
27 Aug - 12:57:42 10° W 13:11:46 48° NNW 13:24:19 10° NE daylight
27 Aug - 15:05:46 10° W 15:15:45 22° NW 15:24:29 10° N daylight
28 Aug - 06:13:18 10° N 06:22:15 28° NE 06:33:22 10° E visible
28 Aug - 08:14:34 10° NW 08:26:27 54° NNE 08:40:57 10° E daylight
28 Aug - 10:18:39 10° WNW 10:32:22 65° N 10:47:03 10° ENE daylight
28 Aug - 12:24:13 10° W 12:38:21 51° NNW 12:51:28 10° NE daylight
28 Aug - 14:31:40 10° W 14:42:42 26° NW 14:52:27 10° N daylight
29 Aug - 05:41:18 10° N 05:49:19 24° NE 05:59:17 10° E visible
29 Aug - 07:41:53 10° NW 07:53:06 51° NNE 08:07:17 10° E daylight
29 Aug - 09:45:34 10° WNW 09:58:49 64° N 10:13:40 10° ENE daylight
29 Aug - 11:50:49 10° W 12:04:52 54° NNW 12:18:31 10° NE daylight
29 Aug - 13:57:45 10° W 14:09:34 29° NW 14:20:12 10° N daylight
30 Aug - 05:09:30 10° N 05:16:28 21° NE 05:25:02 10° E visible
30 Aug - 07:09:18 10° NW 07:19:51 48° NNE 07:33:34 10° E daylight
30 Aug - 09:12:36 10° WNW 09:25:16 64° N 09:40:13 10° E daylight
30 Aug - 11:17:32 10° W 11:31:21 56° NNW 11:45:28 10° NE daylight
30 Aug - 13:23:59 10° W 13:36:22 32° NW 13:47:47 10° NNE daylight
31 Aug - 04:37:59 10° NNE 04:43:43 17° NE 04:50:33 10° E visible
31 Aug - 06:36:49 10° NW 06:46:41 44° NNE 06:59:46 10° E visible
31 Aug - 08:39:43 10° WNW 08:51:47 63° N 09:06:39 10° E daylight
31 Aug - 10:44:20 10° W 10:57:50 58° NNW 11:12:16 10° ENE daylight
31 Aug - 12:50:22 10° W 13:03:05 36° NW 13:15:12 10° NNE daylight
31 Aug - 15:02:02 10° WNW 15:06:27 12° NW 15:10:44 10° NW daylight
01 Sep - 04:07:01 10° NNE 04:11:02 13° NE 04:15:37 10° ENE visible
01 Sep - 06:04:28 10° NNW 06:13:37 40° NNE 06:25:56 10° E visible
01 Sep - 08:06:56 10° WNW 08:18:21 61° N 08:33:02 10° E daylight
01 Sep - 10:11:13 10° W 10:24:18 60° NNW 10:39:00 10° ENE daylight
01 Sep - 12:16:53 10° W 12:29:45 39° NW 12:42:29 10° NNE daylight
01 Sep - 14:26:37 10° W 14:33:29 15° NW 14:40:04 10° NNW daylight
